Tracking 20242 objects as of 24-Jan-2020
HD Live streaming from Space Station
objects crossing your sky now

USA 276

Track USA 276 now!
10-day predictions
USA 276 is classified as:


NORAD ID: 42689
Int'l Code: 2017-022A
Perigee: 395.5 km
Apogee: 404.0 km
Inclination: 50.0 °
Period: 92.4 minutes
Semi major axis: 6770 km
RCS: Unknown
Launch date: May 1, 2017
Source: United States (US)
Launch site: AIR FORCE EASTERN TEST RANGE (AFETR)
aabbcc
Your satellite tracking list
Your tracking list is empty




NASA's NSSDC Master Catalog

Two Line Element Set (TLE):
1 42689U 17022A   20018.49868446 0.00000000  00000-0  00000-0 0    04
2 42689  50.0029 172.9341 0006296 268.2536  91.7462 15.58283412    07
Source of the keplerian elements: McCants